Tracking 31013 objects as of 10-Jul-2025
HD Live streaming from Space Station
objects crossing your sky now

STARLINK-32532

Track STARLINK-32532 now!
10-day predictions
STARLINK-32532 is classified as:


NORAD ID: 62156
Int'l Code: 2024-224T
Perigee: 488.9 km
Apogee: 491.2 km
Inclination: 43.0 °
Period: 94.3 minutes
Semi major axis: 6861 km
RCS: Unknown
Launch date: November 30, 2024
Source: (USA)
Launch site: AIR FORCE EASTERN TEST RANGE (AFETR)
Your satellite tracking list
Your tracking list is empty




NASA's NSSDC Master Catalog

Two Line Element Set (TLE):
1 62156U 24224T   25191.05362757  .00035460  00000-0  12903-2 0  9992
2 62156  43.0023  88.2364 0001630 273.4583  86.6082 15.27621659 35212
Source of the keplerian elements: AFSPC